PERSEUS-M1

Last updated on Sun Jun 21 2026 00:03:50 GMT+0000 (Coordinated Universal Time)

1 40039U 14033AF 26171.38128338 .00001465 00000+0 13720-3 0 9991 2 40039 97.9641 115.5653 0010078 289.2139 70.7991 14.95639538651110
UTC large
Height (km)
Speed (km/s)
/
Latitude / Longitude
Inclination (degrees)
Orbital Period (minutes)
Azimuth
Elevation
Range (km)
Doppler Factor

Next 0 passes for location: London (51.5072 / 0.1276)

No passes found over London.
PERSEUS-M1